Muskegon, MI

3:12 PM EDT on September 22, 2019 (GMT -0400)
Muskegon County

Weather History for KMKG - August, 2019

Change the Weather History Date:

Sunday, August 25, 2019

  Actual Average Record
Temperature  
Mean Temperature 66 °F 69 °F  
Max Temperature 80 °F 78 °F 90 °F (1948)
Min Temperature 53 °F 60 °F 43 °F (1977)
Degree Days  
Heating Degree Days 0 1  
Month to date heating degree days 0 8  
Since 1 June heating degree days 58 85  
Since 1 July heating degree days 1 19  
Cooling Degree Days 2 5  
Month to date cooling degree days 157 142  
Year to date cooling degree days 528 478  
Since 1 June cooling degree days 525 449  
Growing Degree Days 16 (Base 50)    
Moisture  
Dew Point 53 °F    
Average Humidity 63    
Maximum Humidity 86    
Minimum Humidity 42    
Precipitation  
Precipitation 0.00 in 0.11 in 1.83 in (1940)
Month to date precipitation 1.33 2.70  
Year to date precipitation 26.30 19.89  
Snow  
Snow 0.00 in 0.00 in - ()
Month to date snowfall 0.0 0.0  
Since 1 June snowfall 0.0 0.0  
Since 1 July snowfall 0.0 0.0  
Snow Depth 0.00 in    
Sea Level Pressure  
Sea Level Pressure 30.15 in    
Wind  
Wind Speed 7 mph ()    
Max Wind Speed 18 mph    
Max Gust Speed 27 mph    
Visibility 10.0 miles    
Events      
T = Trace of Precipitation, MM = Missing Value Source: Averaged Metar Reports

Daily Weather History Graph

Daily Weather History Graph

Search for Another Location

Airport or City:

Astronomy

Aug. 25, 2019 Rise Set
Actual Time 7:01 AM EDT 8:32 PM EDT
Civil Twilight 6:31 AM EDT 9:01 PM EDT
Nautical Twilight 5:55 AM EDT 9:37 PM EDT
Astronomical Twilight 5:16 AM EDT 10:16 PM EDT
Moon 1:30 AM EDT (8/25) 4:57 PM EDT (8/25)
Length of Visible Light 14h 30m
Length of Day
13h 30m
Waning Crescent, 29% of the Moon is Illuminated
Aug 25
Waning Crescent
Aug 30
New
Sep 5
First Quarter
Sep 14
Full
Sep 21
Last Quarter

Hourly Weather History & Observations

Time (EDT) Temp. Dew Point Humidity Pressure Visibility Wind Dir Wind Speed Gust Speed Precip Events Conditions
12:55 AM 61.0 °F 52.0 °F 72% 30.24 in 10.0 mi East 6.9 mph - N/A   Clear
1:55 AM 57.9 °F 51.1 °F 78% 30.24 in 10.0 mi ESE 4.6 mph - N/A   Clear
2:55 AM 55.9 °F 51.1 °F 84% 30.23 in 10.0 mi East 5.8 mph - N/A   Clear
3:55 AM 55.0 °F 50.0 °F 83% 30.22 in 10.0 mi ESE 3.5 mph - N/A   Clear
4:55 AM 55.0 °F 50.0 °F 83% 30.21 in 10.0 mi East 3.5 mph - N/A   Clear
5:55 AM 53.1 °F 48.9 °F 86% 30.22 in 10.0 mi East 4.6 mph - N/A   Clear
6:55 AM 53.1 °F 48.9 °F 86% 30.22 in 10.0 mi East 3.5 mph - N/A   Scattered Clouds
7:55 AM 57.0 °F 52.0 °F 83% 30.22 in 10.0 mi East 6.9 mph - N/A   Scattered Clouds
8:55 AM 62.1 °F 54.0 °F 75% 30.22 in 10.0 mi ESE 9.2 mph - N/A   Scattered Clouds
9:55 AM 68.0 °F 55.0 °F 63% 30.22 in 10.0 mi ESE 10.4 mph - N/A   Mostly Cloudy
10:55 AM 71.1 °F 55.0 °F 57% 30.21 in 10.0 mi SE 11.5 mph - N/A   Mostly Cloudy
11:55 AM 73.0 °F 54.0 °F 51% 30.19 in 10.0 mi ESE 11.5 mph - N/A   Mostly Cloudy
12:55 PM 75.9 °F 53.1 °F 45% 30.16 in 10.0 mi East 13.8 mph - N/A   Mostly Cloudy
1:55 PM 75.9 °F 54.0 °F 46% 30.14 in 10.0 mi East 12.7 mph - N/A   Mostly Cloudy
2:55 PM 77.0 °F 53.1 °F 43% 30.13 in 10.0 mi SE 13.8 mph 21.9 mph N/A   Mostly Cloudy
3:55 PM 77.0 °F 54.0 °F 45% 30.10 in 10.0 mi ESE 16.1 mph - N/A   Mostly Cloudy
4:55 PM 78.1 °F 53.1 °F 42% 30.08 in 10.0 mi East 12.7 mph 23.0 mph N/A   Mostly Cloudy
5:55 PM 78.1 °F 54.0 °F 43% 30.07 in 10.0 mi East 13.8 mph 21.9 mph N/A   Mostly Cloudy
6:55 PM 77.0 °F 54.0 °F 45% 30.05 in 10.0 mi East 9.2 mph - N/A   Mostly Cloudy
7:55 PM 73.9 °F 55.0 °F 52% 30.05 in 10.0 mi East 8.1 mph - N/A   Mostly Cloudy
8:55 PM 71.1 °F 55.9 °F 59% 30.05 in 10.0 mi East 4.6 mph - N/A   Overcast
9:55 PM 69.1 °F 55.9 °F 63% 30.06 in 10.0 mi East 5.8 mph - N/A   Overcast
10:55 PM 64.9 °F 55.0 °F 70% 30.06 in 10.0 mi ESE 5.8 mph - N/A   Overcast
11:55 PM 64.9 °F 53.1 °F 65% 30.05 in 10.0 mi ESE 6.9 mph - N/A   Clear